Location: North Runcton
(52.7000°N, 0.4333°E)
Time: 00:02:08
(UTC+00:00)

Meteor 2-2 Rocket - Pass Details

Date: 19 May 2025
Orbit: 852 x 927 km, 81.3° (Epoch: 18 June)

Event Time Altitude Azimuth Distance (km) Brightness Sun altitude
Exits shadow 20:57:30 - 180° (S) 3,560 7.0 -7.8°
Rises 20:57:38 0° 180° (S) 3,510 7.0 -7.8°
Reaches altitude 10° 21:00:05 10° 178° (S) 2,584 6.3 -8.1°
Maximum altitude 21:05:55 65° 98° (E) 1,004 4.4 -8.6°
Drops below altitude 10° 21:11:53 10° 18° (NNE) 2,637 7.3 -9.2°
Sets 21:14:24 0° 15° (NNE) 3,588 8.0 -9.4°
